Ellensburg, WA

5:39 AM PDT on April 25, 2017 (GMT -0700)
Bowers

Weather History for KELN - May, 2013

Change the Weather History Date:

Friday, May 17, 2013

  Actual Average (KYKM) Record (KYKM)
Temperature  
Mean Temperature 59 °F -  
Max Temperature 66 °F 72 °F 98 °F (2008)
Min Temperature 54 °F 42 °F 29 °F (2003)
Degree Days  
Heating Degree Days 6    
Growing Degree Days 9 (Base 50)    
Moisture  
Dew Point 42 °F    
Average Humidity 57    
Maximum Humidity 72    
Minimum Humidity 48    
Precipitation  
Precipitation 0.01 in - - ()
Sea Level Pressure  
Sea Level Pressure 29.91 in    
Wind  
Wind Speed 16 mph (NW)    
Max Wind Speed 26 mph    
Max Gust Speed 37 mph    
Visibility 10 miles    
Events Rain    
Averages and records for this station are not official NWS values.
T = Trace of Precipitation, MM = Missing Value Source: NWS Daily Summary

Daily Weather History Graph

Daily Weather History Graph

Search for Another Location

Airport or City:

Trip Planner

Search our weather history database for the weather conditions in past years. The results will help you decide how hot, cold, wet, or windy it might be!

Date:

Astronomy

May. 17, 2013 Rise Set
Actual Time 5:23 AM PDT 8:33 PM PDT
Civil Twilight 4:47 AM PDT 9:10 PM PDT
Nautical Twilight 4:00 AM PDT 9:58 PM PDT
Astronomical Twilight 3:01 AM PDT 10:57 PM PDT
Moon 12:13 PM PDT (5/17) 1:18 AM PDT (5/17)
Length of Visible Light 16h 23m
Length of Day
15h 10m
Waxing Crescent, 46% of the Moon is Illuminated
May 17
Waxing Crescent
May 17
First Quarter
May 24
Full
May 31
Last Quarter
Jun 8
New

Hourly Weather History & Observations

Time (PDT) Temp. Dew Point Humidity Pressure Visibility Wind Dir Wind Speed Gust Speed Precip Events Conditions
12:53 AM 57.0 °F 43.0 °F 59% 29.87 in 10.0 mi NW 13.8 mph - N/A   Overcast
1:53 AM 55.9 °F 44.1 °F 64% 29.86 in 10.0 mi WNW 12.7 mph - N/A   Overcast
2:53 AM 54.0 °F 45.0 °F 72% 29.87 in 10.0 mi NW 11.5 mph - 0.00 in Rain Light Rain
3:53 AM 54.0 °F 44.1 °F 69% 29.86 in 10.0 mi NW 13.8 mph - 0.00 in   Overcast
5:53 AM 54.0 °F 43.0 °F 66% 29.87 in 10.0 mi NW 16.1 mph - N/A   Overcast
6:53 AM 55.0 °F 44.1 °F 67% 29.88 in 10.0 mi NW 13.8 mph - N/A   Mostly Cloudy
7:53 AM 57.0 °F 44.1 °F 62% 29.90 in 10.0 mi NW 13.8 mph - N/A   Overcast
8:53 AM 59.0 °F 43.0 °F 55% 29.90 in 10.0 mi WNW 16.1 mph - N/A   Overcast
9:53 AM 60.1 °F 43.0 °F 53% 29.89 in 10.0 mi NW 15.0 mph - N/A   Overcast
10:53 AM 60.1 °F 44.1 °F 55% 29.90 in 10.0 mi NW 16.1 mph 20.7 mph 0.00 in Rain Light Rain
12:53 PM 64.0 °F 44.1 °F 48% 29.90 in 10.0 mi WNW 20.7 mph - N/A   Partly Cloudy
1:53 PM 64.0 °F 44.1 °F 48% 29.89 in 10.0 mi NW 15.0 mph - N/A   Mostly Cloudy
2:53 PM 61.0 °F 42.1 °F 50% 29.91 in 10.0 mi NW 18.4 mph 25.3 mph N/A   Overcast
3:53 PM 59.0 °F 42.1 °F 53% 29.91 in 10.0 mi NW 23.0 mph 29.9 mph N/A   Overcast
4:53 PM 57.0 °F 45.0 °F 64% 29.91 in 10.0 mi NW 24.2 mph 29.9 mph 0.01 in   Overcast
5:53 PM 60.1 °F 41.0 °F 49% 29.92 in 10.0 mi NW 26.5 mph 36.8 mph N/A   Scattered Clouds
6:53 PM 57.9 °F 39.0 °F 49% 29.93 in 10.0 mi NW 24.2 mph 32.2 mph N/A   Overcast
7:53 PM 57.0 °F 37.9 °F 49% 29.94 in 10.0 mi NW 21.9 mph 31.1 mph N/A   Overcast
8:53 PM 55.9 °F 39.0 °F 53% 29.96 in 10.0 mi WNW 18.4 mph 24.2 mph N/A   Overcast
9:53 PM 55.9 °F 39.9 °F 55% 29.96 in 10.0 mi WNW 16.1 mph - N/A   Overcast
10:53 PM 54.0 °F 39.9 °F 59% 29.97 in 10.0 mi NW 17.3 mph - N/A   Overcast
11:53 PM 54.0 °F 39.0 °F 57% 29.97 in 10.0 mi NW 19.6 mph - N/A   Overcast